Regional Weather Roundup
Issued by NWS

Home | Current Version | Previous Version | Graphics & Text | Print | Product List | Glossary On
Versions: 1 2 3 4 5 6 7 8 9 10 11 12 13 14 15 16 17 18 19 20 21 22 23 24 25 26 27 28 29 30 31 32 33 34 35 36 37 38 39 40 41 42 43 44 45 46 47 48 49 50
000
ASUS43 KMKX 022011
RWRWI

WISCONSIN REGIONAL WEATHER ROUNDUP
NATIONAL WEATHER SERVICE MILWAUKEE/SULLIVAN WI
200 PM CST FRI DEC 02 2016

NOTE: "FAIR" INDICATES FEW OR NO CLOUDS BELOW 12,000 FEET WITH NO
SIGNIFICANT WEATHER AND/OR OBSTRUCTIONS TO VISIBILITY.

WIZ001-002-006>008-014>016-023>028-022100-
NORTHWEST WISCONSIN

CITY           SKY/WX    TMP DP  RH WIND       PRES   REMARKS
SUPERIOR ARPT  CLOUDY    31  24  75 W5        30.23R WCI  26
ASHLAND        CLOUDY    31  25  78 W14       30.20R WCI  21
HAYWARD        CLOUDY    29  22  75 VRB3      30.20R
SIREN          CLOUDY    30  23  74 NW3       30.22S
CUMBERLAND     CLOUDY    30  23  74 NW7       30.20S WCI  23
RICE LAKE      CLOUDY    31  24  76 W6        30.22R WCI  25
CHETEK         CLOUDY    31  24  76 CALM      30.21R
LADYSMITH      CLOUDY    32  25  74 W7        30.20S WCI  25
EAU CLAIRE     CLOUDY    32  24  72 NW8       30.21S WCI  25
MENOMONIE      CLOUDY    33  25  71 W7        30.22S WCI  27
NEW RICHMOND   CLOUDY    31  25  76 NW9       30.22S WCI  23
OSCEOLA        NOT AVBL
$$

WIZ003>005-009-010-017-018-022100-
NORTH CENTRAL WISCONSIN

CITY           SKY/WX    TMP DP  RH WIND       PRES   REMARKS
MANITOWISH WTR CLOUDY    29  29 100 W7        30.14S WCI  22
ARBOR VITAE    CLOUDY    32  27  83 W6        30.14R WCI  26
WOODRUFF       CLOUDY    32  27  83 W6        30.14R WCI  26
RHINELANDER    CLOUDY    32  26  78 W8        30.15R WCI  25
EAGLE RIVER    CLOUDY    30  30 100 CALM      30.13R FOG
LAND O LAKES   LGT SNOW  30  28  92 NW5       30.14R WCI  25
PHILLIPS       CLOUDY    29  25  83 NW5       30.16R WCI  24
TOMAHAWK       CLOUDY    30  24  78 W7        30.16S WCI  23
MEDFORD        CLOUDY    30  23  77 W7        30.17R WCI  23
MERRILL        CLOUDY    32  25  77 NW6       30.17R WCI  26
$$

WIZ029-030-035-036-043>047-022100-
CENTRAL WISCONSIN

CITY           SKY/WX    TMP DP  RH WIND       PRES   REMARKS
WAUSAU         CLOUDY    32  24  72 W8        30.16R WCI  25
MOSINEE        CLOUDY    30  27  86 W8        30.18R WCI  23
MARSHFIELD     CLOUDY    31  22  69 NW9       30.18R WCI  23
STEVENS POINT  CLOUDY    30  22  72 NW6       30.19R WCI  24
WAUPACA        CLOUDY    35  24  65 CALM      30.19S
WAUTOMA        CLOUDY    33  23  66 NW12      30.20R WCI  24
WISC RAPIDS    CLOUDY    32  23  69 NW9       30.21R WCI  24
CAMP DOUGLAS   CLOUDY    32  23  69 NW10      30.21R WCI  24
$$

WIZ011>013-019>022-031-037>040-048>050-022100-
NORTHEAST WISCONSIN

CITY           SKY/WX    TMP DP  RH WIND       PRES   REMARKS
ANTIGO         CLOUDY    31  24  76 NW7       30.15R WCI  24
SHAWANO        CLOUDY    37  27  66 W7        30.16S WCI  32
OCONTO         CLOUDY    36  27  68 NW3       30.15R
STURGEON BAY   CLOUDY    36  27  69 NW9       30.15R WCI  29
GREEN BAY      CLOUDY    37  29  72 NW10      30.17R WCI  30
MANITOWOC      CLOUDY    35  26  69 W10       30.17R WCI  27
APPLETON       CLOUDY    34  25  69 W10       30.15R WCI  26
CLINTONVILLE   CLOUDY    34  25  69 NW12      30.18R WCI  25
OSHKOSH        CLOUDY    34  25  69 W8        30.18R WCI  27
$$

WIZ032>034-041-042-053>061-022100-
SOUTHWEST WISCONSIN

CITY           SKY/WX    TMP DP  RH WIND       PRES   REMARKS
LA CROSSE      CLOUDY    34  22  61 NW7       30.24R WCI  28
SPARTA         CLOUDY    32  24  72 NW6       30.23R WCI  26
VIROQUA        CLOUDY    31  25  77 NW8       30.20S WCI  24
BOSCOBEL       CLOUDY    35  23  61 NW5       30.24S WCI  31
PRAIRIE DU CHI CLOUDY    34  23  63 NW6       30.24S WCI  29
PLATTEVILLE    CLOUDY    33  27  76 NW9       30.22S WCI  26
$$

WIZ056-057-062-063-064-067-068-022100-
SOUTH CENTRAL WISCONSIN

CITY           SKY/WX    TMP DP  RH WIND       PRES   REMARKS
REEDSBURG      CLOUDY    32  23  69 NW8       30.20S WCI  25
BARABOO/DELLS  CLOUDY    32  23  68 N6        30.20S WCI  26
LONE ROCK      CLOUDY    35  22  58 NW9       30.23R WCI  28
MINERAL POINT  CLOUDY    34  28  80 W8        30.20R WCI  27
MADISON        CLOUDY    33  23  66 W7        30.20R WCI  27
MIDDLETON      CLOUDY    34  25  71 NW8       30.22R WCI  27
WATERTOWN      CLOUDY    33  24  69 NW8       30.19R WCI  27
MONROE         CLOUDY    34  25  69 W13       30.20R WCI  25
JANESVILLE     CLOUDY    37  27  65 NW9       30.20R WCI  31
$$

WIZ051-052-058>065-066-070>072-022100-
SOUTHEAST WISCONSIN

CITY           SKY/WX    TMP DP  RH WIND       PRES   REMARKS
MILWAUKEE      CLOUDY    36  23  59 W9        30.19R WCI  29
WAUKESHA       CLOUDY    32  23  69 NW13      30.19R WCI  22
MILWAUKEE/TIMM CLOUDY    34  21  60 NW12      30.19R WCI  25
RACINE         CLOUDY    36  23  59 NW7       30.21R WCI  30
BURLINGTON     CLOUDY    34  25  69 NW8       30.20R WCI  27
KENOSHA        CLOUDY    35  23  61 NW13      30.20R WCI  26
FOND DU LAC    CLOUDY    34  23  64 NW9       30.19R WCI  27
SHEBOYGAN      CLOUDY    34  25  69 W13       30.18R WCI  25
WEST BEND      CLOUDY    32  27  80 NW10      30.18R WCI  24
JUNEAU         CLOUDY    32  24  72 W8        30.20R WCI  25
$$

LSZ147-162-022100-
LAKE SUPERIOR

STATION/POSITION TIME  TEMP    WIND        PRES    WAVE
                       AIR SEA DIR/SP/G            HT/PER
                 (UTC) (F)     (DEG/KT/KT) (MB)    (FT/S)
DEVILS ISLAND    1900   32     260/ 10/ 12 1022.8R
PORT WING        1830   31     290/  7/ 11 1022.7S
SAXON HARBOR     1830   32     260/  4/  8 1022.0R
$$

LMZ867-665-643>646-022100-
LAKE MICHIGAN

STATION/POSITION TIME  TEMP    WIND        PRES    WAVE
                       AIR SEA DIR/SP/G            HT/PER
                 (UTC) (F)     (DEG/KT/KT) (MB)    (FT/S)
CHAMBERS ISLAND  1840   36     270/  4/ 10 1019.6R
NORTHPORT PIER   1840   37     300/ 13/ 19 1019.6R
SISTER BAY       1938   36     320/ 17/ 19   N/A
ALGOMA LAKESHORE 1821          300/  9/ 12   N/A
KEWAUNEE LAKESHO 1948   35     300/  6/ 10 1020.5R
SHEBOYGAN LAKESH 1900   34     300/ 14/ 16 1021.7R
PORT WASHINGTON  1840   36     300/  7/ 11 1022.4R
MILWAUKEE LAKESH 1950   36     300/  7/  9   N/A
S MID LAKE BUOY  1850   37 49  300/ 14/ 17 1021.3R   3/ 6
KENOSHA   LAKESH 1900   35     310/  8/ 13 1022.0
$$

TC  - TEMPERATURE IN CELSIUS
VSB - VISIBILITY IN STATUTE MILES
WCI - WIND CHILL INDEX
HX  - HEAT INDEX




USA.gov is the U.S. government's official web portal to all federal, state and local government web resources and services.